BREEZE-M DEB, 38645

Orbit data source: Space-Track

BREEZE-M DEB, 38645 is space debris in HEO originally from a launch on Fri, 14 Mar 2008 UTC launched from the Tyuratam Missile And Space Complex (TTMTR). Debris objects in space refer to the collection of defunct objects orbiting the Earth. Examples of debris include non-operational satellites, rocket bodies, and fragments generated from explosions, collisions, or faulty payload assembly.

Loading next visibility...
Identifier
38645, 2008-011CU
Orbit
HEO
Country
Flag of CISCIS
Related business
Manufacturer
Unknown
Mission
Spacecraft
Bus & Motor
Unknown
Mass
Unknown
Launch date (UTC)
2008-03-14 (18 years ago)
Launch vehicle
Unknown
Launch site
Tyuratam Missile And Space Complex (TTMTR)
Object type
Payload
Rocket body
Debris
Shape & HBR
Unknown shape, 0.3 m
Radar Cross Section
Medium (>0.1 m² and <1 m²)

Expand to show TLE details & history
Last TLE update: 2 weeks ago

TLE from 2 weeks ago
0 BREEZE-M DEB
1 38645U 08011CU  26162.33106987  .00000097  00000-0  94470-2 0  9992
2 38645  49.0824  23.8006 6364099 218.4993 352.2755  3.06658618173965
Epoch: 2026-06-11T07:56Z
TLE epoch observation values (Epoch: 2026-06-11T07:56:44.436Z)
Latitude
2.91563°
Longitude
-177.55761°
Altitude
1,712.681 km
Speed
8.867 km/s
True Right ascension
13h 25m 12s
True Declination
2° 54' 01"
Sunlit
Object was in daylight at epoch
Visualization orbit readout
Latitude
Unknown
Longitude
Unknown
Altitude
Unknown
Speed
Unknown
Apparent Right ascension
Unknown
Apparent Declination
Unknown
Sunlit
N/A
Visualization observer readout
Local Sidereal Time
01:45:20
Azimuth
Unknown
Elevation
Unknown
Doppler factor
Unknown
Orbital elements
Apogee altitude
26,371.439 km
Perigee altitude
898.415 km
Semi-major axis
20,013.064 km
Eccentricity
0.63641
Inclination
49.0824°
RAAN
23.8006°
Arg. of periapsis
218.4993°
True anomaly
318.05052°
Mean anomaly
352.2755°
Eccentric anomaly
339.51406°
Mean motion
0.76661 °/min
Orbital period
469.6 mins
BSTAR
0.009447
Loading maneuver chart data...
Computing Atmospheric mass density...
Loading historical data...
Loading historical data...
Loading historical data...
Loading historical data...
Loading historical data...
Loading historical data...
Loading historical data...

Documentation

Showing up to 5 results
|